• In Uzbekistan
  • List of Countries
  • For 7 days
  • Water Temperature
  • Satellite Maps
  • Weather Map
  • Weather Widgets
  • user-avatar
    Login

    Hourly Weather Wiktoria

    Today, 11 December, Tuesday

    Time Temperature Precipitation Wind Pressure Humidity
    00:00 +15°C° 0 mm 4 mps 751 mmHg 60%
    01:00 +14°C° 0 mm 4 mps 751 mmHg 64%
    02:00 +14°C° 0 mm 4 mps 750 mmHg 68%
    03:00 +13°C° 0 mm 3 mps 750 mmHg 71%
    04:00 +13°C° 0 mm 2 mps 750 mmHg 77%
    05:00 +14°C° 0 mm 3 mps 750 mmHg 73%
    06:00 +16°C° 0 mm 3 mps 750 mmHg 68%
    07:00 +18°C° 0 mm 3 mps 750 mmHg 64%
    08:00 +21°C° 0 mm 2 mps 750 mmHg 57%
    09:00 +25°C° 0 mm 2 mps 750 mmHg 50%
    10:00 +28°C° 0 mm 1 mps 750 mmHg 42%
    11:00 +30°C° 0 mm 1 mps 749 mmHg 36%
    12:00 +31°C° 0 mm 2 mps 749 mmHg 29%
    13:00 +34°C° 0 mm 2 mps 748 mmHg 23%
    14:00 +34°C° 0 mm 2 mps 748 mmHg 21%
    15:00 +34°C° 0 mm 2 mps 747 mmHg 20%
    16:00 +34°C° 0 mm 2 mps 747 mmHg 18%
    17:00 +31°C° 0 mm 2 mps 747 mmHg 23%
    18:00 +30°C° 0 mm 2 mps 747 mmHg 28%
    19:00 +28°C° 0 mm 2 mps 747 mmHg 32%
    20:00 +26°C° 0 mm 2 mps 747 mmHg 40%
    21:00 +24°C° 0 mm 2 mps 747 mmHg 48%
    22:00 +21°C° 0 mm 3 mps 747 mmHg 56%
    23:00 +21°C° 0 mm 3 mps 747 mmHg 59%

    Tomorrow, 12 December, Wednesday

    Time Temperature Precipitation Wind Pressure Humidity
    00:00 +20°C° 0 mm 3 mps 747 mmHg 62%
    01:00 +20°C° 0 mm 3 mps 747 mmHg 65%
    02:00 +20°C° 0 mm 3 mps 747 mmHg 67%
    03:00 +20°C° 0 mm 3 mps 746 mmHg 69%
    04:00 +21°C° 0 mm 4 mps 746 mmHg 72%
    05:00 +22°C° 0 mm 4 mps 746 mmHg 69%
    06:00 +22°C° 0 mm 5 mps 746 mmHg 67%
    07:00 +23°C° 0 mm 6 mps 747 mmHg 65%
    08:00 +26°C° 0 mm 5 mps 746 mmHg 58%
    09:00 +28°C° 0 mm 5 mps 746 mmHg 51%
    10:00 +30°C° 0 mm 5 mps 746 mmHg 44%
    11:00 +33°C° 0 mm 5 mps 745 mmHg 39%
    12:00 +34°C° 0 mm 5 mps 744 mmHg 33%
    13:00 +36°C° 0 mm 4 mps 744 mmHg 28%
    14:00 +36°C° 0 mm 4 mps 743 mmHg 27%
    15:00 +35°C° 0 mm 4 mps 742 mmHg 27%
    16:00 +35°C° 0 mm 4 mps 741 mmHg 27%
    17:00 +34°C° 0 mm 3 mps 741 mmHg 29%
    18:00 +33°C° 0 mm 3 mps 741 mmHg 30%
    19:00 +31°C° 0 mm 2 mps 740 mmHg 32%
    20:00 +29°C° 0.1 mm 2 mps 740 mmHg 36%
    21:00 +28°C° 0.1 mm 2 mps 740 mmHg 40%
    22:00 +26°C° 0.1 mm 2 mps 740 mmHg 45%
    23:00 +25°C° 0.9 mm 3 mps 740 mmHg 52%

    Day after tomorrow, 13 December, Thursday

    Time Temperature Precipitation Wind Pressure Humidity
    00:00 +24°C° 0.9 mm 3 mps 739 mmHg 59%
    01:00 +22°C° 0.9 mm 4 mps 739 mmHg 66%
    02:00 +22°C° 2.2 mm 4 mps 738 mmHg 73%
    03:00 +22°C° 2.2 mm 5 mps 738 mmHg 79%
    04:00 +22°C° 2.2 mm 5 mps 737 mmHg 85%
    05:00 +22°C° 3 mm 6 mps 737 mmHg 85%
    06:00 +22°C° 3 mm 7 mps 737 mmHg 85%
    07:00 +22°C° 3 mm 8 mps 737 mmHg 86%
    08:00 +22°C° 5.4 mm 7 mps 736 mmHg 86%
    09:00 +22°C° 5.4 mm 7 mps 736 mmHg 86%
    10:00 +22°C° 5.4 mm 6 mps 735 mmHg 86%
    11:00 +23°C° 3.7 mm 6 mps 735 mmHg 83%
    12:00 +23°C° 3.7 mm 6 mps 735 mmHg 80%
    13:00 +23°C° 3.7 mm 6 mps 734 mmHg 77%
    14:00 +21°C° 1.6 mm 5 mps 734 mmHg 80%
    15:00 +20°C° 1.6 mm 5 mps 734 mmHg 84%
    16:00 +18°C° 1.6 mm 4 mps 734 mmHg 88%
    17:00 +17°C° 0.9 mm 4 mps 734 mmHg 86%
    18:00 +16°C° 0.9 mm 5 mps 735 mmHg 85%
    19:00 +15°C° 0.9 mm 5 mps 735 mmHg 84%
    20:00 +14°C° 0.1 mm 4 mps 736 mmHg 84%
    21:00 +13°C° 0.1 mm 3 mps 736 mmHg 84%
    22:00 +14°C° 0.1 mm 2 mps 737 mmHg 84%
    23:00 +13°C° 0 mm 2 mps 737 mmHg 83%

    14 December, Friday

    Time Temperature Precipitation Wind Pressure Humidity
    00:00 +13°C° 0 mm 2 mps 737 mmHg 83%
    01:00 +13°C° 0 mm 2 mps 737 mmHg 83%
    02:00 +13°C° 0 mm 2 mps 737 mmHg 83%
    03:00 +11°C° 0 mm 3 mps 737 mmHg 84%
    04:00 +11°C° 0 mm 3 mps 738 mmHg 85%
    05:00 +12°C° 0 mm 3 mps 738 mmHg 80%
    06:00 +13°C° 0 mm 4 mps 739 mmHg 76%
    07:00 +14°C° 0 mm 4 mps 739 mmHg 72%
    08:00 +16°C° 0 mm 5 mps 740 mmHg 63%
    09:00 +19°C° 0 mm 5 mps 740 mmHg 55%
    10:00 +20°C° 0 mm 6 mps 740 mmHg 46%
    11:00 +21°C° 0 mm 5 mps 740 mmHg 42%
    12:00 +22°C° 0 mm 5 mps 740 mmHg 38%
    13:00 +25°C° 0 mm 4 mps 740 mmHg 34%
    14:00 +25°C° 0 mm 4 mps 740 mmHg 33%
    15:00 +25°C° 0 mm 4 mps 740 mmHg 32%
    16:00 +26°C° 0 mm 4 mps 740 mmHg 31%
    17:00 +25°C° 0 mm 3 mps 740 mmHg 36%
    18:00 +22°C° 0 mm 3 mps 740 mmHg 41%
    19:00 +21°C° 0 mm 2 mps 740 mmHg 46%
    20:00 +20°C° 0 mm 2 mps 740 mmHg 51%
    21:00 +19°C° 0 mm 3 mps 740 mmHg 55%
    22:00 +18°C° 0 mm 3 mps 740 mmHg 60%
    23:00 +17°C° 0 mm 3 mps 740 mmHg 65%

    15 December, Saturday

    Time Temperature Precipitation Wind Pressure Humidity
    00:00 +17°C° 0 mm 2 mps 740 mmHg 69%
    01:00 +16°C° 0 mm 2 mps 740 mmHg 73%
    02:00 +16°C° 0 mm 2 mps 740 mmHg 75%
    03:00 +16°C° 0 mm 2 mps 740 mmHg 76%
    04:00 +15°C° 0 mm 1 mps 739 mmHg 78%
    05:00 +16°C° 0 mm 2 mps 740 mmHg 76%
    06:00 +17°C° 0 mm 2 mps 740 mmHg 74%
    07:00 +18°C° 0 mm 2 mps 740 mmHg 72%
    08:00 +19°C° 0 mm 3 mps 741 mmHg 65%
    09:00 +21°C° 0 mm 3 mps 741 mmHg 59%
    10:00 +22°C° 0 mm 4 mps 741 mmHg 53%
    11:00 +21°C° 0.3 mm 3 mps 741 mmHg 54%
    12:00 +21°C° 0.3 mm 3 mps 740 mmHg 56%
    13:00 +20°C° 0.3 mm 3 mps 740 mmHg 58%
    14:00 +21°C° 0.3 mm 3 mps 740 mmHg 58%
    15:00 +21°C° 0.3 mm 3 mps 740 mmHg 58%
    16:00 +22°C° 0.3 mm 3 mps 739 mmHg 57%
    17:00 +21°C° 0.1 mm 3 mps 739 mmHg 60%
    18:00 +21°C° 0.1 mm 2 mps 740 mmHg 63%
    19:00 +20°C° 0.1 mm 2 mps 740 mmHg 66%
    20:00 +19°C° 0.1 mm 2 mps 740 mmHg 70%
    21:00 +18°C° 0.1 mm 2 mps 740 mmHg 74%
    22:00 +17°C° 0.1 mm 2 mps 740 mmHg 77%
    23:00 +17°C° 0 mm 2 mps 740 mmHg 78%

    16 December, Sunday

    Time Temperature Precipitation Wind Pressure Humidity
    00:00 +17°C° 0 mm 2 mps 740 mmHg 79%
    01:00 +16°C° 0 mm 2 mps 740 mmHg 80%
    02:00 +16°C° 0 mm 2 mps 740 mmHg 80%
    03:00 +16°C° 0 mm 2 mps 740 mmHg 81%
    04:00 +16°C° 0 mm 2 mps 741 mmHg 81%
    05:00 +17°C° 0 mm 2 mps 741 mmHg 77%
    06:00 +18°C° 0 mm 3 mps 742 mmHg 72%
    07:00 +19°C° 0 mm 3 mps 742 mmHg 68%
    08:00 +21°C° 0 mm 4 mps 742 mmHg 60%
    09:00 +23°C° 0 mm 4 mps 743 mmHg 52%
    10:00 +26°C° 0 mm 5 mps 743 mmHg 44%
    11:00 +27°C° 0 mm 5 mps 742 mmHg 41%
    12:00 +28°C° 0 mm 6 mps 742 mmHg 38%
    13:00 +29°C° 0 mm 6 mps 741 mmHg 36%
    14:00 +30°C° 0 mm 6 mps 741 mmHg 35%
    15:00 +30°C° 0 mm 5 mps 741 mmHg 34%
    16:00 +30°C° 0 mm 5 mps 741 mmHg 33%
    17:00 +29°C° 0 mm 4 mps 741 mmHg 37%
    18:00 +28°C° 0 mm 3 mps 742 mmHg 42%
    19:00 +27°C° 0 mm 2 mps 742 mmHg 47%
    20:00 +25°C° 0 mm 2 mps 742 mmHg 50%
    21:00 +24°C° 0 mm 2 mps 743 mmHg 53%
    22:00 +23°C° 0 mm 1 mps 743 mmHg 56%
    23:00 +22°C° 0 mm 1 mps 743 mmHg 60%
    Show more